TSP Talk
logout   logout
Contact Us | Logout
     
July 21, 2017, 8:45 pm (ET / EDT)
TSP Talk Market Comments TSP AutoTracker Premiums Site Map TSP Funds Forum Returns

                 
Tracker Main Menu | Tracker Member Menu | My IFT Records | How to Get Started | Email Updates
                 

Members ranking and current allocation as of: 2017-07-21 (COB)

Press Go back to the previous page   

View a specific date "yyyy-mm-dd"

Underlined column headings can be sorted
Rank Username YTD Returns MTD Returns Start Date
1 tom1tom1 18.95 % 2.26 % 2017-01-01
2 crispy 16.81 % 2.38 % 2017-01-01
3 judochop 16.81 % ** 2.38 % 2017-01-01
4 I-fund 16.81 % 2.38 % 2017-01-01
5 nightlite 16.81 % ** 2.38 % 2017-01-01
6 jrutherford2 16.81 % ** 2.38 % 2017-01-01
7 DCKevin 16.81 % ** 2.38 % 2017-01-01
8 2GodBtheGLORY 16.81 % ** 2.38 % 2017-01-01
9 BearTrap 16.81 % ** 2.38 % 2017-01-01
10 jajo1554 16.81 % ** 2.38 % 2017-01-01
11 Kahuna6969 16.81 % ** 2.38 % 2017-01-01
12 SavyNeal 16.81 % ** 2.38 % 2017-01-01
13 Sunnyday 16.81 % ** 2.38 % 2017-01-01
14 Shawhardy 16.81 % ** 2.38 % 2017-01-01
15 Birchtree 15.34 % ** 2.31 % 2017-01-01
16 jmtz54 14.57 % 1.95 % 2017-01-01
17 RV7 14.33 % 2.26 % 2017-01-01
18 dillpickle * 14.33 % 2.38 % 2017-01-13
19 lbeeba8862 14.25 % ** 2.26 % 2017-01-01
20 robertbr1963 14.20 % ** 2.25 % 2017-01-01
21 triquasar 13.51 % ** 2.38 % 2017-01-01
22 dunwichman 13.50 % ** 2.07 % 2017-01-01
23 chemmie 13.47 % ** 2.38 % 2017-01-01
24 Aviator_Guy 13.46 % 1.67 % 2017-01-01
25 Sports_Night 13.41 % ** 2.13 % 2017-01-01
26 sonyctx 13.41 % ** 2.13 % 2017-01-01
27 Monzie * 13.38 % ** 2.38 % 2017-01-31
28 Mantonelli 13.31 % 1.65 % 2017-01-01
29 Skip 13.20 % 2.00 % 2017-01-01
30 NtvTxan 13.09 % 1.65 % 2017-01-01
31 HarleyLar 13.06 % ** 2.38 % 2017-01-01
32 jnchandrew 13.00 % 2.38 % 2017-01-01
33 thebreen 13.00 % ** 2.02 % 2017-01-01
34 LMBF1_Day 12.89 % 1.65 % 2017-01-01
35 brentmc 12.88 % ** 2.15 % 2017-01-01
36 Cheng 12.80 % 2.08 % 2017-01-01
37 Tot_Global_Mkt 12.80 % ** 2.10 % 2017-01-01
38 rdsox05 12.75 % ** 2.00 % 2017-01-01
39 STCjUnKie 12.74 % ** 2.00 % 2017-01-01
40 bozdog 12.74 % ** 2.00 % 2017-01-01
41 ken863 12.67 % 1.39 % 2017-01-01
42 LMBF1_C>S 12.67 % 1.65 % 2017-01-01
43 bdmkg 12.62 % 0.83 % 2017-01-01
44 siidman 12.59 % 1.74 % 2017-01-01
45 JPW77 12.55 % ** 1.98 % 2017-01-01
46 krempajs 12.53 % 2.05 % 2017-01-01
47 lifeasrxd 12.53 % ** 2.10 % 2017-01-01
48 misg4420 12.51 % ** 2.03 % 2017-01-01
49 andy 12.51 % ** 2.17 % 2017-01-01
50 1crazyfatboy 12.50 % ** 1.98 % 2017-01-01
Rank Username YTD Returns MTD Returns Start Date
51 Mista_Magee 12.49 % 1.65 % 2017-01-01
52 adestonobis 12.46 % 2.38 % 2017-01-01
53 sdidieu 12.42 % ** 2.17 % 2017-01-01
54 mboja 12.40 % ** 1.97 % 2017-01-01
55 lawnman 12.36 % ** 1.96 % 2017-01-01
56 hawktecc1 12.36 % ** 2.05 % 2017-01-01
57 waveman43 12.35 % ** 2.05 % 2017-01-01
58 fishhead 12.34 % ** 2.08 % 2017-01-01
59 american42 12.33 % ** 2.05 % 2017-01-01
60 markmars 12.29 % ** 2.05 % 2017-01-01
61 hg1866 12.28 % ** 2.05 % 2017-01-01
62 arquintana 12.28 % ** 2.01 % 2017-01-01
63 GFundBaby 12.27 % ** 2.04 % 2017-01-01
64 dctarheel 12.26 % ** 2.04 % 2017-01-01
65 GenStar 12.25 % 2.66 % 2017-01-01
66 kraplrak 12.24 % 1.59 % 2017-01-01
67 Hodster 12.24 % ** 2.04 % 2017-01-01
68 crazyjames 12.24 % ** 2.02 % 2017-01-01
69 tshare999 12.23 % ** 2.05 % 2017-01-01
70 malyla 12.20 % ** 0.64 % 2017-01-01
71 GEW 12.20 % ** 2.03 % 2017-01-01
72 furafura 12.20 % ** 2.07 % 2017-01-01
73 Moore 12.20 % ** 2.03 % 2017-01-01
74 danie906 12.18 % ** 2.07 % 2017-01-01
75 Renegade 12.17 % ** 2.03 % 2017-01-01
76 cojo1988 12.16 % ** 2.03 % 2017-01-01
77 bloodbath 12.15 % ** 2.12 % 2017-01-01
78 millstadt05 12.15 % ** 2.03 % 2017-01-01
79 etawx 12.15 % ** 2.06 % 2017-01-01
80 flashmanxx 12.14 % ** 2.03 % 2017-01-01
81 lartra 12.13 % 2.38 % 2017-01-01
82 BigLair 12.12 % 2.16 % 2017-01-01
83 Forecaster 12.12 % ** 2.06 % 2017-01-01
84 soupykid 12.11 % 1.72 % 2017-01-01
85 wwwtractor 12.10 % ** 2.08 % 2017-01-01
86 fluffypotato 12.09 % ** 2.08 % 2017-01-01
87 noclue 12.08 % 2.03 % 2017-01-01
88 towncop1978 12.06 % 2.08 % 2017-01-01
89 dodgerblioux 12.05 % ** 2.08 % 2017-01-01
90 PICK68 12.04 % ** 2.01 % 2017-01-01
91 guahan96 12.02 % ** 2.02 % 2017-01-01
92 rch8710 12.01 % ** 2.08 % 2017-01-01
93 Ghageman 11.98 % ** 2.05 % 2017-01-01
94 CRUSHER 11.97 % ** 2.07 % 2017-01-01
95 Pill 11.95 % ** 2.00 % 2017-01-01
96 EdwardSF 11.94 % ** 2.04 % 2017-01-01
97 temptec 11.93 % ** 1.95 % 2017-01-01
98 Kong13 11.92 % ** 2.00 % 2017-01-01
99 RoldanFam 11.92 % ** 1.93 % 2017-01-01
100 spinslight1 11.91 % ** 2.00 % 2017-01-01
Rank Username YTD Returns MTD Returns Start Date
101 Ozzy_357924 11.89 % ** 1.99 % 2017-01-01
102 Gethers 11.89 % ** 1.93 % 2017-01-01
103 invisiblebutterknife 11.86 % ** 2.10 % 2017-01-01
104 galaxy101 11.83 % 2.50 % 2017-01-01
105 aminze 11.82 % ** 1.91 % 2017-01-01
106 cook79768 11.80 % ** 2.00 % 2017-01-01
107 14bk41 11.79 % 2.10 % 2017-01-01
108 jason011235813 11.78 % ** 1.96 % 2017-01-01
109 sarriola 11.78 % ** 1.95 % 2017-01-01
110 Mustangmoose302 11.77 % ** 2.17 % 2017-01-01
111 freemanick 11.75 % 2.38 % 2017-01-01
112 dlb11693 11.74 % ** 1.95 % 2017-01-01
113 Spydercop 11.73 % 2.00 % 2017-01-01
114 kbennet1 11.72 % 2.38 % 2017-01-01
115 janemattress711 11.72 % ** 2.07 % 2017-01-01
116 redman1970 11.72 % ** 1.99 % 2017-01-01
117 usfwsduckriverman 11.68 % ** 2.05 % 2017-01-01
118 xsoljuhxpnoi929 11.67 % ** 2.13 % 2017-01-01
119 BigMike 11.67 % ** 2.13 % 2017-01-01
120 berg1315 11.67 % ** 2.13 % 2017-01-01
121 C-fund 11.67 % 2.13 % 2017-01-01
122 Kayakfish 11.67 % ** 2.13 % 2017-01-01
123 JTH 11.67 % ** 2.13 % 2017-01-01
124 JTH-ALPAFS 11.67 % ** 2.13 % 2017-01-01
125 JTH-ESD 11.67 % ** 2.13 % 2017-01-01
126 MMAC_POPS 11.67 % ** 2.13 % 2017-01-01
127 cthomas946 11.67 % ** 2.13 % 2017-01-01
128 agogley 11.67 % ** 2.13 % 2017-01-01
129 respro 11.67 % ** 2.13 % 2017-01-01
130 brobrash 11.67 % ** 2.13 % 2017-01-01
131 ranma143 11.67 % ** 2.13 % 2017-01-01
132 Lucky91 11.67 % ** 2.13 % 2017-01-01
133 Mack-Daddy 11.67 % ** 2.13 % 2017-01-01
134 Sarchie 11.67 % ** 2.13 % 2017-01-01
135 Devilduck 11.67 % ** 2.13 % 2017-01-01
136 HotRod 11.67 % ** 2.13 % 2017-01-01
137 Jrgruters42 11.67 % ** 2.13 % 2017-01-01
138 abqsammy 11.67 % ** 2.13 % 2017-01-01
139 BLPinDC 11.67 % ** 2.13 % 2017-01-01
140 CheckRaze 11.67 % ** 2.13 % 2017-01-01
141 Heisenberg 11.67 % ** 2.13 % 2017-01-01
142 jssmith58 11.67 % ** 2.13 % 2017-01-01
143 leadoff2 11.67 % ** 2.13 % 2017-01-01
144 MadMoneyJesse 11.67 % ** 2.13 % 2017-01-01
145 melandblue 11.67 % ** 2.13 % 2017-01-01
146 mepage 11.67 % ** 2.13 % 2017-01-01
147 messimoves 11.67 % ** 2.13 % 2017-01-01
148 MOVINUP 11.67 % ** 2.13 % 2017-01-01
149 pcola5625 11.67 % ** 2.13 % 2017-01-01
150 ShadowAx 11.67 % ** 2.13 % 2017-01-01
Rank Username YTD Returns MTD Returns Start Date
151 Sirius 11.67 % ** 2.13 % 2017-01-01
152 squid3326 11.67 % ** 2.13 % 2017-01-01
153 TheRealEDtheFED 11.67 % ** 2.13 % 2017-01-01
154 KyFan1 11.65 % 2.38 % 2017-01-01
155 deward 11.63 % ** 1.94 % 2017-01-01
156 Short 11.60 % ** 2.02 % 2017-01-01
157 cyoa1fan 11.59 % 0.13 % 2017-01-01
158 petersons 11.59 % ** 1.97 % 2017-01-01
159 Knight25 11.59 % ** 1.97 % 2017-01-01
160 Macgyva 11.59 % ** 1.99 % 2017-01-01
161 BirchNWS 11.58 % ** 1.98 % 2017-01-01
162 Elktracker 11.57 % ** 1.98 % 2017-01-01
163 grube00 11.54 % ** 1.93 % 2017-01-01
164 LAT 11.53 % 1.65 % 2017-01-01
165 BrandesValue 11.53 % ** 2.02 % 2017-01-01
166 BessMan94 11.46 % ** 1.98 % 2017-01-01
167 evimoore 11.45 % ** 1.97 % 2017-01-01
168 sapfm 11.44 % ** 1.94 % 2017-01-01
169 jswright 11.43 % ** 1.94 % 2017-01-01
170 flyoa1 11.40 % 2.01 % 2017-01-01
171 dtrax 11.37 % ** 1.97 % 2017-01-01
172 SWAVET 11.34 % 2.13 % 2017-01-01
173 maverick06 11.34 % ** 2.13 % 2017-01-01
174 Boozin1 11.32 % ** 1.93 % 2017-01-01
175 Beamer 11.30 % ** 1.89 % 2017-01-01
176 meltuna 11.29 % 2.20 % 2017-01-01
177 rebel346 11.29 % ** 2.38 % 2017-01-01
178 Cash_Money 11.26 % 1.00 % 2017-01-01
179 Jrfich 11.25 % ** 2.38 % 2017-01-01
180 tsclippinger 11.23 % ** 1.92 % 2017-01-01
181 workdamnit 11.23 % ** 1.98 % 2017-01-01
182 jaks51 11.23 % ** 1.85 % 2017-01-01
183 IceJoe 11.21 % ** 1.93 % 2017-01-01
184 glysergt 11.13 % 1.89 % 2017-01-01
185 felinecrl 11.12 % 2.17 % 2017-01-01
186 Knot_Guilty 11.12 % ** 2.26 % 2017-01-01
187 uf_rjeezy 11.08 % 1.04 % 2017-01-01
188 almostdone 11.08 % ** 2.02 % 2017-01-01
189 cwbys223 11.08 % ** 1.84 % 2017-01-01
190 bcf0514 11.06 % ** 2.01 % 2017-01-01
191 Sniki 11.05 % ** 1.95 % 2017-01-01
192 OnTarget 11.03 % 1.11 % 2017-01-01
193 bombnav1 11.01 % ** 1.92 % 2017-01-01
194 kmx23 11.00 % ** 1.92 % 2017-01-01
195 vafunkie 10.97 % ** 1.88 % 2017-01-01
196 revel 10.93 % ** 1.98 % 2017-01-01
197 Craigart 10.93 % ** 1.99 % 2017-01-01
198 GWXX 10.92 % ** 1.99 % 2017-01-01
199 shaner19er 10.92 % ** 1.89 % 2017-01-01
200 93GT 10.90 % 1.81 % 2017-01-01
Rank Username YTD Returns MTD Returns Start Date
201 Jayt23 10.90 % 1.81 % 2017-01-01
202 gsrider 10.90 % ** 2.25 % 2017-01-01
203 L2050 10.90 % 1.81 % 2017-01-01
204 tashabh 10.90 % ** 1.81 % 2017-01-01
205 nicole5001 10.90 % ** 1.92 % 2017-01-01
206 Caith 10.90 % ** 1.81 % 2017-01-01
207 Kjay 10.90 % ** 1.81 % 2017-01-01
208 gio20 10.90 % ** 1.81 % 2017-01-01
209 doug.hornback 10.90 % ** 1.81 % 2017-01-01
210 khunk 10.90 % ** 1.81 % 2017-01-01
211 qbcall11 10.90 % ** 1.81 % 2017-01-01
212 Shivers 10.90 % ** 1.81 % 2017-01-01
213 Wrngway 10.90 % ** 1.81 % 2017-01-01
214 DesertBoots77 10.90 % ** 1.81 % 2017-01-01
215 jsmiles 10.89 % ** 1.72 % 2017-01-01
216 smiles 10.89 % ** 1.72 % 2017-01-01
217 evchau 10.88 % 1.82 % 2017-01-01
218 LilLair 10.88 % ** 1.85 % 2017-01-01
219 RX-7 10.87 % ** 2.38 % 2017-01-01
220 8_percent 10.85 % 2.30 % 2017-01-01
221 gaharris 10.83 % 1.89 % 2017-01-01
222 sjcook23 10.83 % 1.82 % 2017-01-01
223 urmomzbox 10.83 % ** 1.91 % 2017-01-01
224 BigBully 10.82 % 2.13 % 2017-01-01
225 trobbi33 10.82 % ** 1.97 % 2017-01-01
226 WallStreet 10.81 % ** 1.96 % 2017-01-01
227 Kotcha 10.81 % ** 1.91 % 2017-01-01
228 Highroller 10.80 % 1.54 % 2017-01-01
229 Chorizo * 10.80 % ** 2.38 % 2017-01-09
230 jdeacon 10.79 % 1.89 % 2017-01-01
231 mrtruckaudi 10.77 % ** 2.38 % 2017-01-01
232 fedgolfer 10.75 % 0.74 % 2017-01-01
233 markisrt4 10.74 % ** 2.14 % 2017-01-01
234 Total_US_Market 10.71 % ** 1.94 % 2017-01-01
235 Andeano 10.70 % ** 1.85 % 2017-01-01
236 garrisoco 10.70 % ** 1.94 % 2017-01-01
237 OldGoat * 10.69 % ** 2.38 % 2017-01-11
238 Piniquim 10.69 % ** 1.94 % 2017-01-01
239 Scarfinger68 10.68 % ** 1.94 % 2017-01-01
240 Widget 10.68 % ** 1.94 % 2017-01-01
241 shagerty 10.68 % ** 1.94 % 2017-01-01
242 rotti 10.68 % ** 1.94 % 2017-01-01
243 dcmorgan 10.68 % ** 1.94 % 2017-01-01
244 DakotaKid 10.66 % ** 1.94 % 2017-01-01
245 AzzySpazbourne 10.66 % ** 1.90 % 2017-01-01
246 spacepoints 10.66 % ** 1.78 % 2017-01-01
247 UCFVern 10.65 % 1.78 % 2017-01-01
248 buckeyefan201 10.63 % ** 1.83 % 2017-01-01
249 Rod 10.62 % ** 1.93 % 2017-01-01
250 Bighorn6 10.59 % 1.77 % 2017-01-01
Rank Username YTD Returns MTD Returns Start Date
251 tankerclown 10.58 % 1.72 % 2017-01-01
252 Clemso 10.57 % ** 1.79 % 2017-01-01
253 SKIPPER 10.56 % 2.08 % 2017-01-01
254 eecscoder 10.56 % ** 1.86 % 2017-01-01
255 gsamx 10.56 % ** 1.79 % 2017-01-01
256 RWJorg 10.54 % 1.98 % 2017-01-01
257 martint4 10.54 % ** 1.85 % 2017-01-01
258 DigDugII 10.54 % ** 1.78 % 2017-01-01
259 RDJ67 10.53 % 2.38 % 2017-01-01
260 denbo 10.53 % 1.95 % 2017-01-01
261 Benny7563 10.52 % 1.94 % 2017-01-01
262 jplecain 10.52 % ** 2.21 % 2017-01-01
263 bluecrab 10.51 % 2.89 % 2017-01-01
264 atarrin 10.51 % ** 1.80 % 2017-01-01
265 RookieInvestor 10.50 % ** 1.86 % 2017-01-01
266 MoneyManager 10.48 % ** 1.90 % 2017-01-01
267 jpaulhus 10.47 % ** 1.90 % 2017-01-01
268 valions15 10.47 % ** 1.90 % 2017-01-01
269 HocusPocus 10.46 % ** 1.90 % 2017-01-01
270 rivs 10.46 % ** 1.90 % 2017-01-01
271 Pittdog 10.45 % 1.91 % 2017-01-01
272 scrsvs 10.45 % 1.66 % 2017-01-01
273 pcalderin 10.45 % ** 1.90 % 2017-01-01
274 SPN46er 10.45 % ** 1.90 % 2017-01-01
275 KneednDough 10.45 % ** 1.90 % 2017-01-01
276 BigJohn 10.44 % 2.38 % 2017-01-01
277 SSJodon 10.44 % ** 1.89 % 2017-01-01
278 Rumpelstilzchen 10.44 % ** 1.89 % 2017-01-01
279 vbbikerbums 10.44 % ** 1.89 % 2017-01-01
280 Ddarko 10.44 % ** 1.89 % 2017-01-01
281 retire2017 10.44 % ** 1.89 % 2017-01-01
282 SuzinCity 10.44 % ** 1.89 % 2017-01-01
283 weigerber55 10.44 % ** 1.89 % 2017-01-01
284 drgonzo58 10.44 % ** 1.89 % 2017-01-01
285 dunedad 10.43 % 1.89 % 2017-01-01
286 helen 10.43 % 1.89 % 2017-01-01
287 jamilaunc 10.43 % ** 1.89 % 2017-01-01
288 OBGibby 10.43 % ** 1.89 % 2017-01-01
289 Class 10.43 % ** 1.89 % 2017-01-01
290 future 10.43 % ** 1.89 % 2017-01-01
291 Raxser 10.43 % ** 1.89 % 2017-01-01
292 poolman 10.42 % ** 1.89 % 2017-01-01
293 25or6to4 10.42 % ** 1.89 % 2017-01-01
294 jayew007 10.42 % ** 1.89 % 2017-01-01
295 mceglia 10.42 % ** 1.89 % 2017-01-01
296 SkyPilot 10.42 % ** 1.89 % 2017-01-01
297 Morpheus 10.42 % ** 1.75 % 2017-01-01
298 bettertrader 10.42 % ** 1.89 % 2017-01-01
299 bubba71842 10.42 % ** 1.89 % 2017-01-01
300 divemonkey 10.42 % ** 1.89 % 2017-01-01
Rank Username YTD Returns MTD Returns Start Date
301 Lucas123 10.42 % ** 1.89 % 2017-01-01
302 packerbart 10.41 % 1.89 % 2017-01-01
303 RAMORIPKIN 10.41 % ** 1.89 % 2017-01-01
304 inyadreems 10.40 % ** 1.89 % 2017-01-01
305 don3149 10.40 % ** 1.89 % 2017-01-01
306 elufints 10.40 % ** 1.89 % 2017-01-01
307 surftec 10.40 % ** 1.89 % 2017-01-01
308 tgun 10.40 % ** 1.89 % 2017-01-01
309 TSP-roulette 10.39 % 1.88 % 2017-01-01
310 scubasteve1 10.39 % ** 1.88 % 2017-01-01
311 tlap612 10.39 % ** 1.88 % 2017-01-01
312 JG2017 10.39 % ** 1.88 % 2017-01-01
313 Stony 10.39 % ** 1.88 % 2017-01-01
314 rossbrian00 10.38 % ** 1.88 % 2017-01-01
315 cmccall661 10.37 % 1.24 % 2017-01-01
316 MYDOGZCUTE 10.37 % ** 1.88 % 2017-01-01
317 Jqsomera 10.36 % ** 1.83 % 2017-01-01
318 mdearman 10.36 % ** 1.78 % 2017-01-01
319 Mucho_Dinero 10.35 % 1.59 % 2017-01-01
320 rangerray 10.35 % 2.18 % 2017-01-01
321 mpie72 10.35 % ** 1.86 % 2017-01-01
322 badgerland 10.34 % 1.91 % 2017-01-01
323 Jayru 10.34 % 1.78 % 2017-01-01
324 tmntrc56 10.34 % ** 1.87 % 2017-01-01
325 TXTornados 10.33 % 1.36 % 2017-01-01
326 jerzystang 10.32 % ** 1.76 % 2017-01-01
327 ward5820 10.30 % 1.58 % 2017-01-01
328 Wizard_of_Oz 10.30 % ** 1.87 % 2017-01-01
329 sage 10.30 % ** 1.83 % 2017-01-01
330 pdug 10.28 % 2.10 % 2017-01-01
331 william4x 10.28 % ** 1.84 % 2017-01-01
332 jpcavin 10.25 % 1.97 % 2017-01-01
333 MakeItRain 10.23 % 1.00 % 2017-01-01
334 Boots22 10.23 % 2.13 % 2017-01-01
335 joharo 10.20 % ** 1.85 % 2017-01-01
336 puppylove 10.19 % 1.91 % 2017-01-01
337 Gain10 10.19 % ** 1.84 % 2017-01-01
338 1Mech 10.18 % 1.84 % 2017-01-01
339 sparty83 10.18 % ** 1.84 % 2017-01-01
340 rjeeeeezy 10.18 % ** 2.01 % 2017-01-01
341 Niner49er52 10.18 % ** 1.84 % 2017-01-01
342 TSPBrett 10.18 % ** 1.84 % 2017-01-01
343 kibey84 10.16 % ** 1.84 % 2017-01-01
344 DoughBoy 10.16 % ** 1.84 % 2017-01-01
345 ROCKMAXX 10.15 % 2.18 % 2017-01-01
346 rwwjr65 10.15 % ** 1.84 % 2017-01-01
347 modom07 * 10.14 % 2.02 % 2017-02-02
348 ksteiner560 10.14 % 2.04 % 2017-01-01
349 itsRaining 10.13 % ** 1.83 % 2017-01-01
350 retire15 10.12 % ** 1.65 % 2017-01-01
Rank Username YTD Returns MTD Returns Start Date
351 redcard 10.11 % ** 1.77 % 2017-01-01
352 Carwin 10.10 % 1.62 % 2017-01-01
353 TDStrange 10.08 % 1.44 % 2017-01-01
354 Big_Sarge 10.07 % ** 1.84 % 2017-01-01
355 lmbebo 10.07 % ** 1.74 % 2017-01-01
356 adam 10.06 % 1.81 % 2017-01-01
357 goforit 10.05 % 2.18 % 2017-01-01
358 FedSince2009 10.05 % ** 1.70 % 2017-01-01
359 miyagi 10.04 % 1.90 % 2017-01-01
360 mosicki 10.02 % ** 1.79 % 2017-01-01
361 Supernova2033 10.01 % 1.80 % 2017-01-01
362 40calSue 10.00 % 1.89 % 2017-01-01
363 Calicat69 10.00 % ** 1.68 % 2017-01-01
364 ksklmiller 10.00 % ** 1.73 % 2017-01-01
365 redman2222 9.99 % ** 1.63 % 2017-01-01
366 Shamus13 9.98 % 0.61 % 2017-01-01
367 vexter 9.98 % ** 2.13 % 2017-01-01
368 evob 9.97 % 1.84 % 2017-01-01
369 texcc 9.97 % ** 1.65 % 2017-01-01
370 Trapperpaul 9.94 % 1.68 % 2017-01-01
371 Awsum_Al 9.94 % ** 1.80 % 2017-01-01
372 Unmanned 9.93 % ** 1.79 % 2017-01-01
373 Tubman83 9.93 % ** 1.79 % 2017-01-01
374 stacks 9.92 % ** 1.79 % 2017-01-01
375 Robin_hood 9.91 % 1.63 % 2017-01-01
376 EricDeLee 9.91 % ** 1.79 % 2017-01-01
377 Kafkaesquee 9.90 % ** 1.79 % 2017-01-01
378 JimmyJoe 9.88 % ** 1.76 % 2017-01-01
379 biomedrick 9.87 % 0.86 % 2017-01-01
380 philcam 9.85 % 1.65 % 2017-01-01
381 Mercy 9.84 % ** 1.64 % 2017-01-01
382 saxman 9.84 % ** 1.81 % 2017-01-01
383 Boghie 9.81 % 1.10 % 2017-01-01
384 Burt 9.81 % ** 1.77 % 2017-01-01
385 Bullseye 9.80 % ** 1.77 % 2017-01-01
386 Barney 9.80 % ** 1.77 % 2017-01-01
387 ijmurray 9.80 % ** 1.71 % 2017-01-01
388 savagemojo 9.80 % ** 1.77 % 2017-01-01
389 Sandbagger6 9.79 % 2.18 % 2017-01-01
390 les2l8 9.77 % 2.33 % 2017-01-01
391 MoneyTalks 9.76 % 2.53 % 2017-01-01
392 L2040 9.76 % 1.62 % 2017-01-01
393 soupygirl 9.76 % ** 1.62 % 2017-01-01
394 Salmon365 9.76 % ** 1.62 % 2017-01-01
395 soam24 9.76 % ** 1.62 % 2017-01-01
396 Castronaut 9.76 % ** 1.62 % 2017-01-01
397 Forcefed 9.76 % ** 1.62 % 2017-01-01
398 GOVOLS 9.76 % ** 1.62 % 2017-01-01
399 soupydog 9.76 % ** 1.62 % 2017-01-01
400 Tvenos 9.76 % ** 1.62 % 2017-01-01
Rank Username YTD Returns MTD Returns Start Date
401 Inertia 9.75 % ** 1.59 % 2017-01-01
402 playboy 9.73 % ** 1.78 % 2017-01-01
403 bkc2a 9.72 % 2.90 % 2017-01-01
404 kujayhawk69 9.70 % ** 1.59 % 2017-01-01
405 felixthecat 9.69 % 2.57 % 2017-01-01
406 ldm1958 9.69 % ** 1.73 % 2017-01-01
407 tkd1982 9.68 % 2.01 % 2017-01-01
408 resurgemus 9.67 % 1.62 % 2017-01-01
409 Riverman62 9.67 % ** 1.60 % 2017-01-01
410 markopolno12 9.67 % ** 1.74 % 2017-01-01
411 NotReally! 9.66 % ** 1.65 % 2017-01-01
412 slakker97 9.62 % ** 1.77 % 2017-01-01
413 bjean 9.61 % 1.78 % 2017-01-01
414 roonie 9.59 % ** 1.89 % 2017-01-01
415 Weather_n_Leather 9.57 % ** 1.64 % 2017-01-01
416 jbwalters 9.56 % 2.04 % 2017-01-01
417 joehacker 9.56 % 2.25 % 2017-01-01
418 Markster70 9.56 % ** 1.74 % 2017-01-01
419 TheGizz 9.56 % ** 1.63 % 2017-01-01
420 justbidinmytime 9.55 % 2.26 % 2017-01-01
421 PublicServant * 9.55 % ** 2.04 % 2017-02-01
422 Jane 9.54 % 1.91 % 2017-01-01
423 JVC1979 9.54 % ** 1.65 % 2017-01-01
424 postalmatt 9.51 % 1.95 % 2017-01-01
425 mikepop 9.50 % 1.43 % 2017-01-01
426 joewashdc 9.50 % ** 1.59 % 2017-01-01
427 funkyhunky 9.49 % ** 1.99 % 2017-01-01
428 k9lowe 9.49 % ** 1.57 % 2017-01-01
429 ShadowHawk 9.48 % 2.29 % 2017-01-01
430 lsutiger1985 9.46 % ** 1.71 % 2017-01-01
431 cbp03 9.45 % ** 1.63 % 2017-01-01
432 Bullet 9.42 % 1.94 % 2017-01-01
433 BGBassLady64 9.38 % 1.65 % 2017-01-01
434 PIC153BD 9.37 % ** 1.66 % 2017-01-01
435 Rico69 9.34 % 1.89 % 2017-01-01
436 Richman52 * 9.34 % ** 2.05 % 2017-01-27
437 tucahay 9.32 % 1.65 % 2017-01-01
438 martycox88 9.32 % ** 1.65 % 2017-01-01
439 Damndogs 9.30 % 2.23 % 2017-01-01
440 ravensfan 9.29 % 0.97 % 2017-01-01
441 DistributionKiller 9.28 % 2.92 % 2017-01-01
442 indgilbert 9.28 % 0.46 % 2017-01-01
443 silversurfer 9.27 % ** 1.73 % 2017-01-01
444 CapnEddie 9.25 % ** 1.65 % 2017-01-01
445 pwclantdiv 9.25 % ** 1.62 % 2017-01-01
446 Bball 9.25 % ** 1.43 % 2017-01-01
447 Boxholder 9.24 % 0.64 % 2017-01-01
448 Jayeks 9.24 % ** 2.07 % 2017-01-01
449 eshore07 9.22 % ** 1.89 % 2017-01-01
450 Beagle * 9.21 % 2.13 % 2017-01-24
Rank Username YTD Returns MTD Returns Start Date
451 marco59 9.18 % 1.65 % 2017-01-01
452 Babygirl07 9.18 % 1.65 % 2017-01-01
453 MaStA 9.18 % 1.65 % 2017-01-01
454 jwblanfo 9.18 % 1.65 % 2017-01-01
455 LMBF1-CI>S 9.18 % 1.65 % 2017-01-01
456 skid-kid 9.18 % 1.65 % 2017-01-01
457 Cashflow911 9.18 % 1.65 % 2017-01-01
458 doge1976 9.18 % 0.13 % 2017-01-01
459 gronk007 9.18 % 1.65 % 2017-01-01
460 NavyEng 9.18 % 1.65 % 2017-01-01
461 kodaq2001 9.18 % 1.65 % 2017-01-01
462 caseyd8s 9.18 % ** 1.65 % 2017-01-01
463 steve10608 9.18 % ** 1.65 % 2017-01-01
464 a1sauce 9.18 % ** 1.65 % 2017-01-01
465 geargirl 9.18 % ** 1.65 % 2017-01-01
466 krash9561 9.18 % ** 1.65 % 2017-01-01
467 48cj2a 9.18 % ** 1.65 % 2017-01-01
468 Brinky 9.18 % ** 1.65 % 2017-01-01
469 ckeiththeman 9.18 % ** 1.65 % 2017-01-01
470 madchili 9.18 % ** 1.65 % 2017-01-01
471 radarvector 9.18 % ** 1.65 % 2017-01-01
472 BrkBred247 9.18 % ** 1.65 % 2017-01-01
473 Peteylaw06 9.18 % ** 1.65 % 2017-01-01
474 ccarrolls 9.18 % ** 1.65 % 2017-01-01
475 kcfz0t 9.18 % ** 1.65 % 2017-01-01
476 ttn 9.18 % ** 1.65 % 2017-01-01
477 S-fund 9.18 % 1.65 % 2017-01-01
478 jmartello 9.18 % ** 1.65 % 2017-01-01
479 n.shift 9.18 % ** 1.65 % 2017-01-01
480 b52vqn 9.18 % ** 1.65 % 2017-01-01
481 mikepriest 9.18 % ** 1.65 % 2017-01-01
482 Reggie0622 9.18 % ** 1.65 % 2017-01-01
483 mxtwo50r 9.18 % ** 1.65 % 2017-01-01
484 dseery3 9.18 % ** 1.65 % 2017-01-01
485 spantzer 9.18 % ** 1.65 % 2017-01-01
486 jbvollmer 9.18 % ** 1.65 % 2017-01-01
487 bylow-cellhi 9.18 % ** 1.65 % 2017-01-01
488 thinkman 9.18 % ** 1.65 % 2017-01-01
489 mr47930 9.18 % ** 1.65 % 2017-01-01
490 canmannc 9.18 % ** 1.65 % 2017-01-01
491 captjamied 9.18 % ** 1.65 % 2017-01-01
492 Bettinainc 9.18 % ** 1.65 % 2017-01-01
493 Woodys_World 9.18 % ** 1.65 % 2017-01-01
494 jetjammr 9.18 % ** 1.65 % 2017-01-01
495 68chevy 9.18 % ** 1.65 % 2017-01-01
496 G-Money 9.18 % ** 1.65 % 2017-01-01
497 sythbpr 9.18 % ** 1.65 % 2017-01-01
498 Aiagib 9.18 % ** 1.65 % 2017-01-01
499 MahiChaser 9.18 % ** 1.65 % 2017-01-01
500 atenciord 9.18 % ** 1.65 % 2017-01-01
Rank Username YTD Returns MTD Returns Start Date
501 Sensei 9.18 % ** 1.65 % 2017-01-01
502 scaredstiff 9.18 % ** 1.65 % 2017-01-01
503 kleios 9.18 % ** 1.65 % 2017-01-01
504 walterramjet 9.18 % ** 1.65 % 2017-01-01
505 RabbiTuckman 9.18 % ** 1.65 % 2017-01-01
506 Dexter 9.18 % ** 1.65 % 2017-01-01
507 BReine13 9.18 % ** 1.65 % 2017-01-01
508 DylanFan 9.18 % ** 1.65 % 2017-01-01
509 mollshark 9.18 % ** 1.65 % 2017-01-01
510 recki13 9.18 % ** 1.65 % 2017-01-01
511 kawzman 9.18 % ** 1.65 % 2017-01-01
512 NiteFlyer 9.18 % ** 1.65 % 2017-01-01
513 sniper 9.18 % ** 1.65 % 2017-01-01
514 Uptrend 9.18 % ** 1.65 % 2017-01-01
515 Legend 9.18 % ** 1.65 % 2017-01-01
516 Hank2 9.18 % ** 1.65 % 2017-01-01
517 barryc 9.18 % ** 1.65 % 2017-01-01
518 HookemDanno 9.18 % ** 1.65 % 2017-01-01
519 vdubya 9.18 % ** 1.65 % 2017-01-01
520 Dave98 9.18 % ** 1.65 % 2017-01-01
521 applejack 9.18 % ** 1.65 % 2017-01-01
522 D_Brown 9.18 % ** 1.65 % 2017-01-01
523 Piesanders 9.18 % ** 1.65 % 2017-01-01
524 uphan 9.18 % ** 1.65 % 2017-01-01
525 Cmarq2k2 9.18 % ** 1.65 % 2017-01-01
526 ReverendHerc 9.18 % ** 1.65 % 2017-01-01
527 antauz 9.18 % ** 1.65 % 2017-01-01
528 horseman 9.18 % ** 1.65 % 2017-01-01
529 Racerx919 9.18 % ** 1.65 % 2017-01-01
530 SPUR 9.18 % ** 1.65 % 2017-01-01
531 uscs344 9.18 % ** 1.65 % 2017-01-01
532 1953greg 9.18 % ** 1.65 % 2017-01-01
533 5hundy 9.18 % ** 1.65 % 2017-01-01
534 accountant02130 9.18 % ** 1.65 % 2017-01-01
535 albwrong 9.18 % ** 1.65 % 2017-01-01
536 andercee 9.18 % ** 1.65 % 2017-01-01
537 Asylum 9.18 % ** 1.65 % 2017-01-01
538 barb41048 9.18 % ** 1.65 % 2017-01-01
539 BichonFreeze 9.18 % ** 1.65 % 2017-01-01
540 bigcat61 9.18 % ** 1.65 % 2017-01-01
541 bobmarley753 9.18 % ** 1.65 % 2017-01-01
542 BP171 9.18 % ** 1.65 % 2017-01-01
543 Bravos_Time! 9.18 % ** 1.65 % 2017-01-01
544 bucket 9.18 % ** 1.65 % 2017-01-01
545 ccharsh22 9.18 % ** 1.65 % 2017-01-01
546 Dalz 9.18 % ** 1.65 % 2017-01-01
547 Dartman 9.18 % ** 1.65 % 2017-01-01
548 delldell 9.18 % ** 1.65 % 2017-01-01
549 dojdave 9.18 % ** 1.65 % 2017-01-01
550 DonKeyhote 9.18 % ** 1.65 % 2017-01-01
Rank Username YTD Returns MTD Returns Start Date
551 Dsots 9.18 % ** 1.65 % 2017-01-01
552 elinca 9.18 % ** 1.65 % 2017-01-01
553 engr_villa 9.18 % ** 1.65 % 2017-01-01
554 ericwinn 9.18 % ** 1.65 % 2017-01-01
555 FISHHEADS 9.18 % ** 1.65 % 2017-01-01
556 flipman 9.18 % ** 1.65 % 2017-01-01
557 gagobutos 9.18 % ** 1.65 % 2017-01-01
558 gdraft 9.18 % ** 1.65 % 2017-01-01
559 hardyandtiny 9.18 % ** 1.65 % 2017-01-01
560 Howanic 9.18 % ** 1.65 % 2017-01-01
561 Jagman26 9.18 % ** 1.65 % 2017-01-01
562 Jaygoots 9.18 % ** 1.65 % 2017-01-01
563 Jimmys_Girl 9.18 % ** 1.65 % 2017-01-01
564 Kylee 9.18 % ** 1.65 % 2017-01-01
565 ldrltjg 9.18 % ** 1.65 % 2017-01-01
566 lestampoc 9.18 % ** 1.65 % 2017-01-01
567 liquidh2o 9.18 % ** 1.65 % 2017-01-01
568 Magic 9.18 % ** 1.65 % 2017-01-01
569 marcusg 9.18 % ** 1.65 % 2017-01-01
570 martypantsss 9.18 % ** 1.65 % 2017-01-01
571 mikrodojr 9.18 % ** 1.65 % 2017-01-01
572 minhan_1408 9.18 % ** 1.65 % 2017-01-01
573 mrfishing 9.18 % ** 1.65 % 2017-01-01
574 Mr_Mojo_Rising 9.18 % ** 1.65 % 2017-01-01
575 mustbev 9.18 % ** 1.65 % 2017-01-01
576 NationalGuard 9.18 % ** 1.65 % 2017-01-01
577 navgod34 9.18 % ** 1.65 % 2017-01-01
578 Newbie 9.18 % ** 1.65 % 2017-01-01
579 nnewman 9.18 % ** 1.65 % 2017-01-01
580 pops 9.18 % ** 1.65 % 2017-01-01
581 pwagner3md 9.18 % ** 1.65 % 2017-01-01
582 rabbithimself 9.18 % ** 1.65 % 2017-01-01
583 Revanshill 9.18 % ** 1.65 % 2017-01-01
584 Rifleman 9.18 % ** 1.65 % 2017-01-01
585 rwmiller50 9.18 % ** 1.65 % 2017-01-01
586 sball.ca 9.18 % ** 1.65 % 2017-01-01
587 SeaOtter 9.18 % ** 1.65 % 2017-01-01
588 shelby642 9.18 % ** 1.65 % 2017-01-01
589 shoeboxgorilla 9.18 % ** 1.65 % 2017-01-01
590 skbn 9.18 % ** 1.65 % 2017-01-01
591 Snake1b4 9.18 % ** 1.65 % 2017-01-01
592 SPANK550 9.18 % ** 1.65 % 2017-01-01
593 SR101 9.18 % ** 1.65 % 2017-01-01
594 TaillightMafia 9.18 % ** 1.65 % 2017-01-01
595 taronsr 9.18 % ** 1.65 % 2017-01-01
596 tekpc2k2 9.18 % ** 1.65 % 2017-01-01
597 theScientist 9.18 % ** 1.65 % 2017-01-01
598 tlmathe 9.18 % ** 1.65 % 2017-01-01
599 trwill7172 9.18 % ** 1.65 % 2017-01-01
600 victoria 9.18 % ** 1.65 % 2017-01-01
Rank Username YTD Returns MTD Returns Start Date
601 vintage53 9.18 % ** 1.65 % 2017-01-01
602 wolfpup77 9.18 % ** 1.65 % 2017-01-01
603 Wulfie 9.18 % ** 1.65 % 2017-01-01
604 wsureshoot 9.18 % ** 1.65 % 2017-01-01
605 drewcifer 9.18 % ** 1.65 % 2017-01-01
606 snwbrdr397 9.18 % ** 1.65 % 2017-01-01
607 Handballer 9.18 % ** 1.65 % 2017-01-01
608 Steelhead 9.18 % ** 1.65 % 2017-01-01
609 wddolson 9.18 % ** 1.65 % 2017-01-01
610 DetroitLifer 9.18 % ** 1.65 % 2017-01-01
611 Crackon 9.18 % ** 1.65 % 2017-01-01
612 LMBF_Method 9.18 % ** 1.65 % 2017-01-01
613 Bdiddy 9.14 % 2.57 % 2017-01-01
614 Skooby 9.13 % 2.19 % 2017-01-01
615 asuasylum 9.12 % 2.17 % 2017-01-01
616 boilerman 9.12 % 1.09 % 2017-01-01
617 KRSSDSU 9.09 % 2.08 % 2017-01-01
618 murph 9.08 % 0.13 % 2017-01-01
619 mrmaxd 9.08 % ** 1.32 % 2017-01-01
620 u.s.dan 9.07 % 1.81 % 2017-01-01
621 mcash 9.06 % 1.46 % 2017-01-01
622 SCHAGAN 9.05 % 1.82 % 2017-01-01
623 lilbob 9.05 % ** 1.49 % 2017-01-01
624 ejholt 9.02 % ** 1.59 % 2017-01-01
625 ArchAngel 9.01 % ** 2.13 % 2017-01-01
626 Roddhsi 9.00 % 2.09 % 2017-01-01
627 silver2828 9.00 % 3.10 % 2017-01-01
628 NavyGirl88 8.99 % 2.32 % 2017-01-01
629 eddie3375 8.97 % ** 2.13 % 2017-01-01
630 ferretgrl 8.97 % ** 1.63 % 2017-01-01
631 mikeginva 8.97 % ** 1.63 % 2017-01-01
632 arhodie 8.95 % ** 0.77 % 2017-01-01
633 babydux 8.93 % ** 1.65 % 2017-01-01
634 marshad_786 8.92 % 1.37 % 2017-01-01
635 iyoung 8.89 % ** 1.10 % 2017-01-01
636 tton 8.88 % 2.13 % 2017-01-01
637 kemphrunner 8.86 % 1.70 % 2017-01-01
638 goose 8.86 % 0.52 % 2017-01-01
639 endoskell 8.86 % 1.92 % 2017-01-01
640 sigj 8.86 % ** 1.65 % 2017-01-01
641 Jaybird79 8.86 % ** 1.61 % 2017-01-01
642 ChessGuy 8.85 % ** 2.03 % 2017-01-01
643 mallardman89 8.83 % ** 1.66 % 2017-01-01
644 Kaufmanrider 8.82 % ** 1.45 % 2017-01-01
645 SPOT_LT 8.81 % 1.65 % 2017-01-01
646 jpwmasters * 8.80 % ** 2.38 % 2017-03-20
647 CapeChem 8.79 % 1.45 % 2017-01-01
648 rgncajun68 8.78 % ** 0.82 % 2017-01-01
649 JOSE123 8.78 % ** 1.28 % 2017-01-01
650 pjsstuff71 8.76 % 1.84 % 2017-01-01
Rank Username YTD Returns MTD Returns Start Date
651 oOSupremeOo 8.76 % ** 1.94 % 2017-01-01
652 Wildwoman 8.74 % 2.13 % 2017-01-01
653 cvlsvt 8.74 % ** 1.46 % 2017-01-01
654 Timberwoof 8.73 % 2.38 % 2017-01-01
655 codezero 8.73 % ** 1.49 % 2017-01-01
656 Cactus 8.72 % 1.22 % 2017-01-01
657 FatMan 8.72 % 1.22 % 2017-01-01
658 aeroconfigs 8.72 % 0.66 % 2017-01-01
659 cfwcfw 8.72 % ** 1.58 % 2017-01-01
660 EarlyRTr 8.71 % 1.66 % 2017-01-01
661 LMBF1_SIM 8.70 % 0.64 % 2017-01-01
662 argyle64 8.68 % 2.05 % 2017-01-01
663 StockSurfer 8.68 % 1.57 % 2017-01-01
664 dave 8.68 % ** 2.13 % 2017-01-01
665 Phil46 8.66 % ** 1.47 % 2017-01-01
666 tm85 8.64 % ** 1.47 % 2017-01-01
667 phlames 8.63 % 1.65 % 2017-01-01
668 Tamjay74 8.63 % ** 1.53 % 2017-01-01
669 trudger 8.61 % 1.58 % 2017-01-01
670 Pickles 8.60 % 2.38 % 2017-01-01
671 tjdorrie 8.56 % ** 1.46 % 2017-01-01
672 pinion 8.55 % ** 1.48 % 2017-01-01
673 MRJ 8.53 % 0.66 % 2017-01-01
674 cletuss * 8.51 % 0.66 % 2017-04-06
675 weather 8.51 % ** 1.40 % 2017-01-01
676 L2030 8.51 % 1.40 % 2017-01-01
677 LeCouchonDingue 8.51 % ** 1.40 % 2017-01-01
678 DrScooter 8.51 % ** 1.40 % 2017-01-01
679 marka1620 8.51 % ** 1.40 % 2017-01-01
680 pathalford 8.51 % ** 1.40 % 2017-01-01
681 Beacher1 8.49 % ** 1.65 % 2017-01-01
682 beachfront * 8.49 % ** 1.89 % 2017-01-30
683 TraderJane 8.46 % 2.13 % 2017-01-01
684 20%_each 8.46 % 1.43 % 2017-01-01
685 CDooge 8.46 % ** 1.43 % 2017-01-01
686 Rube 8.46 % ** 1.43 % 2017-01-01
687 msm24 8.46 % ** 1.43 % 2017-01-01
688 mickeyelk 8.44 % 1.60 % 2017-01-01
689 NSLADL2 8.43 % ** 1.55 % 2017-01-01
690 scaltagi 8.42 % ** 1.53 % 2017-01-01
691 txfan 8.41 % 1.89 % 2017-01-01
692 catak 8.41 % ** 1.49 % 2017-01-01
693 rbizz 8.40 % 2.38 % 2017-01-01
694 moneymikem 8.40 % 2.38 % 2017-01-01
695 TURNIPSEED 8.39 % 1.77 % 2017-01-01
696 rothnroll 8.39 % 2.11 % 2017-01-01
697 JMoody 8.35 % 1.99 % 2017-01-01
698 puddy 8.33 % 2.25 % 2017-01-01
699 Hamhocs 8.33 % 1.04 % 2017-01-01
700 Lester130 8.31 % 1.69 % 2017-01-01
Rank Username YTD Returns MTD Returns Start Date
701 paperbitch 8.27 % ** 1.48 % 2017-01-01
702 ChuckH 8.24 % 0.64 % 2017-01-01
703 Tsunami 8.24 % 2.57 % 2017-01-01
704 scsiguru 8.23 % ** 1.38 % 2017-01-01
705 franky 8.22 % ** 1.65 % 2017-01-01
706 canisdog 8.21 % ** 1.37 % 2017-01-01
707 Scraps 8.18 % 2.38 % 2017-01-01
708 ILoveTDs 8.17 % 0.64 % 2017-01-01
709 Bfejeran 8.14 % ** 0.64 % 2017-01-01
710 hosscube 8.14 % ** 1.50 % 2017-01-01
711 riverdestiny 8.11 % ** 1.46 % 2017-01-01
712 czapor1967 8.10 % ** 2.38 % 2017-01-01
713 adamo 8.09 % 0.68 % 2017-01-01
714 jerodt 8.09 % 2.25 % 2017-01-01
715 Ozhusker * 8.07 % 0.68 % 2017-01-06
716 Scrappy 8.06 % 1.65 % 2017-01-01
717 dirtboy27 8.06 % 0.68 % 2017-01-01
718 Sign_Stealer 8.04 % ** 1.65 % 2017-01-01
719 lkatme 8.01 % ** 1.45 % 2017-01-01
720 Striken7 8.00 % ** 1.46 % 2017-01-01
721 CrgButcher 7.99 % 1.65 % 2017-01-01
722 Carpatc 7.99 % ** 1.44 % 2017-01-01
723 pokerstar629 7.98 % 2.26 % 2017-01-01
724 insocova 7.97 % 2.07 % 2017-01-01
725 cholondo 7.95 % ** 1.41 % 2017-01-01
726 Jetpowered78 7.93 % ** 1.72 % 2017-01-01
727 yanni123 7.91 % 1.36 % 2017-01-01
728 kathy73 7.90 % 2.18 % 2017-01-01
729 DC2scott * 7.90 % ** 1.75 % 2017-01-30
730 Mlbplayer86 * 7.90 % ** 1.61 % 2017-01-17
731 DaBears17 7.86 % ** 1.65 % 2017-01-01
732 SICK2MYSTOMACH 7.85 % 1.75 % 2017-01-01
733 tspintel 7.84 % ** 1.65 % 2017-01-01
734 gk10128 7.81 % 2.13 % 2017-01-01
735 bailemi 7.81 % ** 0.64 % 2017-01-01
736 Richard_Todd 7.80 % 1.09 % 2017-01-01
737 TMUFR 7.78 % 1.46 % 2017-01-01
738 widdicom 7.78 % 2.38 % 2017-01-01
739 flg22 7.78 % ** 2.13 % 2017-01-01
740 Captcaveman 7.76 % 1.75 % 2017-01-01
741 Mustang2008 * 7.72 % 1.34 % 2017-01-09
742 nanamoma 7.71 % 2.69 % 2017-01-01
743 knowskill 7.71 % 0.13 % 2017-01-01
744 parkbrau 7.70 % ** 1.22 % 2017-01-01
745 ryencsik 7.69 % ** 1.39 % 2017-01-01
746 catsathome 7.68 % 2.05 % 2017-01-01
747 jasonlwright 7.66 % ** 1.38 % 2017-01-01
748 mathewsz7 * 7.64 % 2.33 % 2017-03-06
749 thickage * 7.64 % ** 1.85 % 2017-01-25
750 Totohydra 7.62 % 2.03 % 2017-01-01
Rank Username YTD Returns MTD Returns Start Date
751 badeye28 7.62 % 2.08 % 2017-01-01
752 Christopher 7.61 % 1.40 % 2017-01-01
753 lsrodgers 7.61 % ** 1.33 % 2017-01-01
754 tdekens * 7.59 % ** 1.89 % 2017-02-06
755 lpac 7.59 % ** 1.31 % 2017-01-01
756 wwiggin2002 7.55 % 1.66 % 2017-01-01
757 IWTC 7.54 % ** 1.33 % 2017-01-01
758 Shakenbake * 7.52 % 0.64 % 2017-01-11
759 pread 7.51 % ** 1.65 % 2017-01-01
760 loco_lobo 7.44 % ** 1.65 % 2017-01-01
761 wayne622 * 7.43 % 1.79 % 2017-01-31
762 Bobcat777 * 7.42 % 2.06 % 2017-03-07
763 poi9 7.41 % 1.32 % 2017-01-01
764 BorderBlade 7.39 % 1.11 % 2017-01-01
765 cpowith4 7.38 % 1.96 % 2017-01-01
766 3days 7.37 % 2.38 % 2017-01-01
767 FedUpFed 7.37 % ** 0.13 % 2017-01-01
768 crommie 7.33 % 2.77 % 2017-01-01
769 soupyBeard 7.32 % 2.05 % 2017-01-01
770 BArREttLEEMAKINIT 7.31 % -0.14 % 2017-01-01
771 CadMeUm 7.31 % 1.00 % 2017-01-01
772 Kentucky 7.31 % ** 1.22 % 2017-01-01
773 Nadeem 7.29 % 1.92 % 2017-01-01
774 DudeWayne 7.29 % ** 1.58 % 2017-01-01
775 J-Trader 7.28 % 0.64 % 2017-01-01
776 spgenius 7.26 % 0.86 % 2017-01-01
777 FAB1 7.25 % 1.89 % 2017-01-01
778 bjohnson12 7.22 % 1.52 % 2017-01-01
779 tazzymt 7.22 % 1.13 % 2017-01-01
780 Emcd14 7.16 % ** 1.29 % 2017-01-01
781 arodiaz 7.14 % ** 1.26 % 2017-01-01
782 hotwings 7.11 % 1.19 % 2017-01-01
783 Bender 7.01 % ** 1.27 % 2017-01-01
784 Skorcher 7.00 % 2.57 % 2017-01-01
785 raiderddj 7.00 % 0.13 % 2017-01-01
786 Sad_Al 6.98 % 1.13 % 2017-01-01
787 rchurchwell 6.98 % ** 1.65 % 2017-01-01
788 Cathy57 6.93 % 0.68 % 2017-01-01
789 Skorp64 6.90 % 0.20 % 2017-01-01
790 sean101 6.90 % 0.77 % 2017-01-01
791 Renoir 6.90 % ** 1.17 % 2017-01-01
792 PTSarge 6.89 % ** 1.32 % 2017-01-01
793 hotelyankee16 * 6.88 % ** 1.65 % 2017-01-31
794 skeeter 6.87 % 2.13 % 2017-01-01
795 rookiecsi 6.86 % 1.11 % 2017-01-01
796 OhioOkie 6.85 % 1.76 % 2017-01-01
797 londi1tagaholy 6.81 % ** 1.23 % 2017-01-01
798 Jello 6.80 % ** 1.65 % 2017-01-01
799 MaxPowers 6.79 % 0.99 % 2017-01-01
800 DaddyTin 6.78 % ** 1.65 % 2017-01-01
Rank Username YTD Returns MTD Returns Start Date
801 batman 6.78 % ** 1.35 % 2017-01-01
802 coop65 6.76 % ** 1.02 % 2017-01-01
803 2Plus 6.72 % 1.10 % 2017-01-01
804 sdhoag13 6.72 % 1.03 % 2017-01-01
805 zegerst 6.72 % ** 0.49 % 2017-01-01
806 LongShot 6.71 % 1.18 % 2017-01-01
807 arrow_point 6.71 % ** 1.65 % 2017-01-01
808 Viva_La_Migra 6.70 % ** 0.13 % 2017-01-01
809 Jason.Z 6.69 % ** 0.13 % 2017-01-01
810 1965Vintage * 6.68 % 0.13 % 2017-01-19
811 sierrabravo11 * 6.68 % ** 1.65 % 2017-01-27
812 Kevindraws53 6.65 % ** 1.19 % 2017-01-01
813 neptune 6.64 % 1.87 % 2017-01-01
814 EWB! 6.63 % 1.69 % 2017-01-01
815 tucotsp 6.63 % 1.01 % 2017-01-01
816 sanfran814 * 6.63 % 2.38 % 2017-01-05
817 RushSlowly 6.61 % 1.52 % 2017-01-01
818 riptide17 6.61 % 1.17 % 2017-01-01
819 USMC6056 * 6.61 % ** 2.02 % 2017-03-31
820 jeffrey77jones 6.60 % 0.85 % 2017-01-01
821 fossilbird 6.59 % ** 1.19 % 2017-01-01
822 clester 6.58 % 1.18 % 2017-01-01
823 HollywoodNY 6.58 % ** 1.08 % 2017-01-01
824 Pmnick114 6.55 % ** 1.12 % 2017-01-01
825 ravenstreasures 6.54 % ** 1.20 % 2017-01-01
826 Humberson * 6.54 % ** 1.89 % 2017-03-21
827 Sam_5_0 * 6.52 % 2.33 % 2017-01-27
828 GonzoJK 6.51 % 0.13 % 2017-01-01
829 coinmanjack 6.51 % ** 1.09 % 2017-01-01
830 Whipsaw 6.49 % 1.31 % 2017-01-01
831 bayou4cj 6.43 % 1.70 % 2017-01-01
832 JaBlack 6.42 % 0.13 % 2017-01-01
833 Sippeeboy 6.36 % 0.35 % 2017-01-01
834 FishSqueezer 6.33 % ** 0.13 % 2017-01-01
835 bighurd51 6.30 % ** 1.65 % 2017-01-01
836 razor * 6.30 % ** 1.89 % 2017-03-27
837 CTV49 * 6.30 % ** 1.89 % 2017-03-23
838 Towanda 6.28 % 1.11 % 2017-01-01
839 Rogue 6.26 % 0.87 % 2017-01-01
840 DreamboatAnnie 6.25 % 0.13 % 2017-01-01
841 texaggies89 6.22 % 0.20 % 2017-01-01
842 rich1 6.22 % ** 1.17 % 2017-01-01
843 Lynx 6.21 % ** 0.13 % 2017-01-01
844 Medic72 6.19 % ** 1.10 % 2017-01-01
845 klaron 6.18 % ** 0.64 % 2017-01-01
846 Dorado 6.12 % 1.83 % 2017-01-01
847 fran1775 6.12 % 1.89 % 2017-01-01
848 razorbckx 6.12 % ** 1.00 % 2017-01-01
849 wevodau 6.08 % ** 1.65 % 2017-01-01
850 12squared 6.07 % 1.05 % 2017-01-01
Rank Username YTD Returns MTD Returns Start Date
851 dsnidernurse 6.07 % ** 1.08 % 2017-01-01
852 FireWeatherMet 6.06 % 1.61 % 2017-01-01
853 Luckycat 6.06 % ** 1.08 % 2017-01-01
854 bikeboyjoe 6.05 % ** 1.06 % 2017-01-01
855 ezcomeezgo 6.02 % ** 1.24 % 2017-01-01
856 IndianaJones 6.00 % 1.49 % 2017-01-01
857 paymetoplay * 5.98 % ** 1.65 % 2017-01-26
858 Klear 5.95 % 1.00 % 2017-01-01
859 evilanne 5.93 % 1.44 % 2017-01-01
860 rayald 5.92 % ** 0.13 % 2017-01-01
861 peterson82 5.92 % ** 1.65 % 2017-01-01
862 L2020 5.92 % 0.93 % 2017-01-01
863 KevinD 5.92 % ** 0.93 % 2017-01-01
864 wornout 5.92 % ** 0.93 % 2017-01-01
865 derosafj 5.92 % ** 0.93 % 2017-01-01
866 dpardue 5.92 % ** 0.93 % 2017-01-01
867 Booster 5.91 % 0.13 % 2017-01-01
868 kras 5.91 % ** 0.88 % 2017-01-01
869 timingbill 5.91 % ** 1.07 % 2017-01-01
870 JAFI 5.90 % 1.25 % 2017-01-01
871 mschewy 5.89 % 1.47 % 2017-01-01
872 Risky1 5.89 % ** 1.12 % 2017-01-01
873 Risky11 5.89 % ** 1.12 % 2017-01-01
874 NewBlackShirt 5.86 % ** 1.65 % 2017-01-01
875 BIGfRED 5.86 % ** 1.01 % 2017-01-01
876 mellowmoon 5.83 % ** 0.13 % 2017-01-01
877 tataberto 5.80 % 1.03 % 2017-01-01
878 Shirt357 * 5.79 % 2.02 % 2017-03-24
879 MrJohnRoss 5.79 % 2.38 % 2017-01-01
880 gatoremt * 5.79 % ** 2.09 % 2017-03-03
881 StockTater 5.76 % ** 1.01 % 2017-01-01
882 limebalz 5.75 % 0.71 % 2017-01-01
883 c130 5.74 % ** 0.13 % 2017-01-01
884 sgtbriangreen 5.73 % 0.13 % 2017-01-01
885 Pwsimmons 5.73 % ** 1.01 % 2017-01-01
886 ztlmike 5.72 % 1.05 % 2017-01-01
887 daze823 5.72 % 0.37 % 2017-01-01
888 SummerLove * 5.72 % ** 1.91 % 2017-04-04
889 soon2retire 5.72 % ** 0.89 % 2017-01-01
890 KNUCKLEDRAGGER 5.70 % 0.84 % 2017-01-01
891 ssdave 5.69 % 2.16 % 2017-01-01
892 14ers 5.69 % ** 1.00 % 2017-01-01
893 dialing4dollars 5.68 % ** 1.65 % 2017-01-01
894 jarhed0689 * 5.67 % 2.14 % 2017-02-22
895 lthor 5.67 % ** 0.13 % 2017-01-01
896 olddb * 5.67 % ** 1.70 % 2017-01-04
897 KinoFish * 5.65 % 1.96 % 2017-01-05
898 Badgers69 5.59 % ** 0.13 % 2017-01-01
899 Cruser 5.58 % 0.99 % 2017-01-01
900 Nordic 5.58 % 0.64 % 2017-01-01
Rank Username YTD Returns MTD Returns Start Date
901 alexkoonce 5.58 % ** 0.98 % 2017-01-01
902 Gypsy55 5.56 % 0.00 % 2017-01-01
903 polarbear 5.56 % ** 0.13 % 2017-01-01
904 gos3319 5.56 % ** 0.97 % 2017-01-01
905 VANILLAICE * 5.54 % 1.65 % 2017-03-28
906 TLeo96 5.54 % ** 1.62 % 2017-01-01
907 Turg * 5.51 % ** 1.65 % 2017-02-15
908 domino11 5.50 % ** 0.96 % 2017-01-01
909 spapadopoulos 5.48 % 1.93 % 2017-01-01
910 magellan * 5.48 % ** 1.72 % 2017-04-03
911 craigerv 5.47 % ** 0.13 % 2017-01-01
912 frostybosty 5.46 % 2.38 % 2017-01-01
913 TradingJoe 5.45 % 1.23 % 2017-01-01
914 SteelSaving 5.43 % 0.66 % 2017-01-01
915 cowboyaug4 5.42 % 0.68 % 2017-01-01
916 Aitrus 5.42 % 2.13 % 2017-01-01
917 RSJones * 5.36 % 2.17 % 2017-03-08
918 homieg24 5.36 % 0.86 % 2017-01-01
919 Spinks * 5.36 % ** 2.03 % 2017-03-29
920 crhuss 5.36 % ** 0.94 % 2017-01-01
921 GoNoles 5.36 % ** 0.93 % 2017-01-01
922 boricua 5.34 % 1.34 % 2017-01-01
923 pamkk 5.34 % ** 1.02 % 2017-01-01
924 Mongos * 5.32 % 1.84 % 2017-03-30
925 Volfan 5.32 % 0.13 % 2017-01-01
926 42RL * 5.32 % 2.13 % 2017-04-03
927 mikekellyonline * 5.31 % 2.13 % 2017-05-17
928 Clue 5.30 % 0.66 % 2017-01-01
929 kstephen * 5.30 % 0.13 % 2017-03-10
930 brobin10 5.29 % 1.74 % 2017-01-01
931 MacDaddy 5.29 % 0.66 % 2017-01-01
932 BillD 5.26 % ** 0.91 % 2017-01-01
933 RobinHood 5.24 % 0.13 % 2017-01-01
934 fick 5.22 % ** 0.89 % 2017-01-01
935 nugget * 5.21 % ** 2.13 % 2017-03-14
936 bmthomas0222 5.21 % ** 0.96 % 2017-01-01
937 nightsters 5.20 % 0.13 % 2017-01-01
938 Nightrain * 5.19 % ** 1.81 % 2017-03-20
939 merlin 5.18 % ** 0.91 % 2017-01-01
940 lucy 5.16 % 1.40 % 2017-01-01
941 Rundp 5.15 % ** 0.90 % 2017-01-01
942 talking2jets 5.14 % 0.64 % 2017-01-01
943 kevmanfoo 5.14 % 2.08 % 2017-01-01
944 jpatriarca 5.13 % ** 0.91 % 2017-01-01
945 roxiemoron 5.12 % ** 1.89 % 2017-01-01
946 TKMike 5.12 % ** 0.95 % 2017-01-01
947 UWQLI * 5.12 % ** 1.36 % 2017-02-17
948 Bmoredunks 5.10 % 0.52 % 2017-01-01
949 69mustang 5.10 % ** 0.13 % 2017-01-01
950 jsdiven * 5.04 % 1.73 % 2017-03-17
Rank Username YTD Returns MTD Returns Start Date
951 yeot 5.04 % ** 0.83 % 2017-01-01
952 phxmrc 5.01 % 1.25 % 2017-01-01
953 p3a 5.00 % 0.63 % 2017-01-01
954 amuraider 5.00 % ** 0.90 % 2017-01-01
955 2manyirons 4.90 % 1.90 % 2017-01-01
956 Redcalf * 4.90 % 1.65 % 2017-02-03
957 Rainmaker44 4.87 % 0.56 % 2017-01-01
958 jeffmelendez * 4.86 % ** 1.89 % 2017-02-28
959 Sonic 4.85 % 0.23 % 2017-01-01
960 coastalite 4.85 % ** 1.55 % 2017-01-01
961 bones605 4.83 % ** 0.98 % 2017-01-01
962 REDNECK 4.83 % ** 0.84 % 2017-01-01
963 confusedcookie 4.81 % ** 2.13 % 2017-01-01
964 maui21ice 4.81 % ** 1.65 % 2017-01-01
965 lsbeachwx 4.80 % 0.79 % 2017-01-01
966 ILTDtechnical 4.80 % ** 0.64 % 2017-01-01
967 korekaza 4.77 % 0.13 % 2017-01-01
968 Attila 4.76 % ** 0.52 % 2017-01-01
969 kamisu * 4.65 % ** 1.65 % 2017-02-22
970 nightman 4.60 % 1.65 % 2017-01-01
971 rallythis 4.56 % ** 0.13 % 2017-01-01
972 Rummy1958 4.55 % -0.40 % 2017-01-01
973 baldhippie 4.53 % ** 0.65 % 2017-01-01
974 Bluewing00 4.51 % 0.62 % 2017-01-01
975 hemi2020 * 4.50 % ** 1.65 % 2017-02-13
976 cenno 4.42 % 2.13 % 2017-01-01
977 Snakebite 4.41 % 0.13 % 2017-01-01
978 2Funds 4.39 % ** 0.76 % 2017-01-01
979 barnowlet 4.37 % 1.30 % 2017-01-01
980 thewingreaper 4.36 % 1.22 % 2017-01-01
981 netforcer 4.35 % 1.50 % 2017-01-01
982 Mauser 4.35 % 0.13 % 2017-01-01
983 FireGal 4.34 % 1.89 % 2017-01-01
984 TSP4Soccer 4.32 % ** 0.80 % 2017-01-01
985 Tangmonke 4.29 % ** 0.50 % 2017-01-01
986 Britts4life 4.27 % -0.17 % 2017-01-01
987 ArkHills 4.27 % 0.18 % 2017-01-01
988 ccbadc 4.27 % ** 1.65 % 2017-01-01
989 mtstricker 4.26 % ** 0.73 % 2017-01-01
990 MrBowl 4.21 % 0.13 % 2017-01-01
991 ephsns2 4.20 % 1.24 % 2017-01-01
992 joh1135 4.19 % ** 0.59 % 2017-01-01
993 gman48 4.17 % 1.95 % 2017-01-01
994 Maine-i-ac 4.16 % 0.13 % 2017-01-01
995 dmanron58 4.10 % 0.13 % 2017-01-01
996 Skyrider2020 4.10 % ** 0.13 % 2017-01-01
997 FordMan 4.06 % ** 0.58 % 2017-01-01
998 dallashalos 4.04 % 1.20 % 2017-01-01
999 soupydoom 4.00 % 1.65 % 2017-01-01
1000 anthony 3.99 % ** 0.13 % 2017-01-01
Rank Username YTD Returns MTD Returns Start Date
1001 sagramore 3.99 % ** 0.73 % 2017-01-01
1002 bullsheet 3.96 % ** 0.66 % 2017-01-01
1003 chingerson 3.90 % ** 0.62 % 2017-01-01
1004 NASAedStevens 3.90 % ** 0.67 % 2017-01-01
1005 Bowfish 3.87 % 0.13 % 2017-01-01
1006 1FraGar 3.85 % ** 0.64 % 2017-01-01
1007 kave 3.83 % 0.72 % 2017-01-01
1008 rjperry * 3.81 % 2.07 % 2017-05-09
1009 Spaniard 3.81 % ** 0.64 % 2017-01-01
1010 tdorney1 3.78 % ** 0.60 % 2017-01-01
1011 North 3.72 % ** 0.61 % 2017-01-01
1012 olddog 3.68 % 1.02 % 2017-01-01
1013 Holden_Caufield 3.67 % 0.47 % 2017-01-01
1014 99percent 3.67 % ** 0.64 % 2017-01-01
1015 PAINTER533 3.67 % ** 0.61 % 2017-01-01
1016 farmerjack 3.66 % ** 0.54 % 2017-01-01
1017 goldenyears 3.64 % 0.56 % 2017-01-01
1018 L-Income 3.64 % 0.56 % 2017-01-01
1019 ricokaro 3.64 % ** 0.56 % 2017-01-01
1020 betterdeal 3.64 % ** 0.56 % 2017-01-01
1021 Crewdog 3.64 % ** 0.56 % 2017-01-01
1022 mbergevinjr 3.63 % ** 0.13 % 2017-01-01
1023 bohammer 3.57 % 0.49 % 2017-01-01
1024 IFTrader 3.53 % 0.13 % 2017-01-01
1025 MohammadXX 3.51 % 0.56 % 2017-01-01
1026 Ducksrule 3.51 % 1.50 % 2017-01-01
1027 whitmoresl * 3.50 % ** 1.84 % 2017-05-11
1028 mrduckmd1 3.48 % 0.09 % 2017-01-01
1029 prisonguard224 3.48 % ** 0.13 % 2017-01-01
1030 sbates 3.46 % ** 0.57 % 2017-01-01
1031 1daybe * 3.45 % 0.13 % 2017-02-06
1032 lettsj * 3.45 % ** 1.65 % 2017-02-22
1033 CallMeIshmael 3.45 % ** 0.56 % 2017-01-01
1034 dwwright3rd 3.44 % ** 1.02 % 2017-01-01
1035 rytrucker 3.44 % ** 0.58 % 2017-01-01
1036 Greg 3.43 % ** 1.17 % 2017-01-01
1037 iceman1jag 3.43 % ** 0.56 % 2017-01-01
1038 Roymac28 3.38 % 0.46 % 2017-01-01
1039 nate4sho 3.37 % ** 0.13 % 2017-01-01
1040 tink 3.35 % 0.13 % 2017-01-01
1041 EarlyRetire 3.34 % 0.63 % 2017-01-01
1042 1derman 3.34 % ** 0.13 % 2017-01-01
1043 helpme 3.30 % ** 0.53 % 2017-01-01
1044 VPX11 3.29 % 1.12 % 2017-01-01
1045 kobedog 3.29 % ** 0.83 % 2017-01-01
1046 Latonia64 3.22 % ** 0.63 % 2017-01-01
1047 bhep * 3.21 % ** 1.65 % 2017-01-05
1048 dfaat * 3.20 % 0.13 % 2017-01-31
1049 cosinecrunchdown 3.14 % ** 0.64 % 2017-01-01
1050 MarkC 3.14 % ** 0.64 % 2017-01-01
Rank Username YTD Returns MTD Returns Start Date
1051 Gahiker 3.14 % ** 0.64 % 2017-01-01
1052 EZ2K 3.14 % ** 0.64 % 2017-01-01
1053 F-fund 3.14 % 0.64 % 2017-01-01
1054 trevor1953 3.14 % ** 0.64 % 2017-01-01
1055 MrVela 3.14 % ** 0.64 % 2017-01-01
1056 AHarvey311990 3.14 % ** 0.64 % 2017-01-01
1057 Muneco803 3.14 % ** 0.64 % 2017-01-01
1058 icemanknows 3.14 % ** 0.64 % 2017-01-01
1059 Titotsp 3.14 % ** 0.64 % 2017-01-01
1060 HALL 3.14 % ** 0.64 % 2017-01-01
1061 ContrarianJeff 3.14 % ** 0.64 % 2017-01-01
1062 NOVANole 3.14 % ** 0.64 % 2017-01-01
1063 nbialek2 3.14 % ** 0.64 % 2017-01-01
1064 JACKNAZ0506 3.14 % ** 0.64 % 2017-01-01
1065 Itchn2retire 3.14 % ** 0.64 % 2017-01-01
1066 pmcriaco 3.14 % ** 0.64 % 2017-01-01
1067 Litlbear62 3.14 % ** 0.64 % 2017-01-01
1068 milopro 3.14 % ** 0.64 % 2017-01-01
1069 cologal8 3.14 % ** 0.64 % 2017-01-01
1070 staticoverdub 3.14 % ** 0.64 % 2017-01-01
1071 samNme 3.14 % ** 0.64 % 2017-01-01
1072 ybnormal 3.14 % ** 0.64 % 2017-01-01
1073 keepnitreal 3.14 % ** 0.64 % 2017-01-01
1074 wayne 3.14 % ** 0.64 % 2017-01-01
1075 dprince 3.14 % ** 0.64 % 2017-01-01
1076 dibyadas 3.14 % ** 0.64 % 2017-01-01
1077 navyseal641 3.14 % ** 0.64 % 2017-01-01
1078 VincentP 3.14 % ** 0.64 % 2017-01-01
1079 Adventurer 3.14 % ** 0.64 % 2017-01-01
1080 azfreed5 3.14 % ** 0.64 % 2017-01-01
1081 Colegan 3.14 % ** 0.64 % 2017-01-01
1082 DINK 3.14 % ** 0.64 % 2017-01-01
1083 DonStar 3.14 % ** 0.64 % 2017-01-01
1084 drifter81 3.14 % ** 0.64 % 2017-01-01
1085 elitesauce 3.14 % ** 0.64 % 2017-01-01
1086 hoodoo 3.14 % ** 0.64 % 2017-01-01
1087 huskerchad 3.14 % ** 0.64 % 2017-01-01
1088 JD797 3.14 % ** 0.64 % 2017-01-01
1089 Labsroc01 3.14 % ** 0.64 % 2017-01-01
1090 Luscombesfly 3.14 % ** 0.64 % 2017-01-01
1091 masedog81 3.14 % ** 0.64 % 2017-01-01
1092 mpdcop 3.14 % ** 0.64 % 2017-01-01
1093 nab0325 3.14 % ** 0.64 % 2017-01-01
1094 pmelchman 3.14 % ** 0.64 % 2017-01-01
1095 SS4183 3.14 % ** 0.64 % 2017-01-01
1096 TSPNotley 3.14 % ** 0.64 % 2017-01-01
1097 vector4tfc 3.14 % ** 0.64 % 2017-01-01
1098 yeelah1 3.14 % ** 0.64 % 2017-01-01
1099 slickcheech 3.14 % ** 0.64 % 2017-01-01
1100 kooke 3.14 % ** 0.64 % 2017-01-01
Rank Username YTD Returns MTD Returns Start Date
1101 not_too_shabby 3.14 % ** 0.64 % 2017-01-01
1102 meyersj 3.08 % ** 0.13 % 2017-01-01
1103 wkevinc * 3.06 % ** 0.64 % 2017-02-15
1104 marine 3.03 % ** 0.48 % 2017-01-01
1105 rudyd3 3.03 % ** 0.46 % 2017-01-01
1106 TwoYrs2Go 3.00 % 1.40 % 2017-01-01
1107 buck1623 * 2.96 % 2.08 % 2017-05-30
1108 slayer72 2.93 % 0.49 % 2017-01-01
1109 FMS_MITCH 2.92 % 0.13 % 2017-01-01
1110 walldog * 2.91 % 2.54 % 2017-06-15
1111 RickandRo 2.91 % ** 0.13 % 2017-01-01
1112 safetyguy 2.90 % 0.84 % 2017-01-01
1113 Mr_Boooom 2.87 % 0.64 % 2017-01-01
1114 hayman 2.80 % 0.13 % 2017-01-01
1115 seajpalm * 2.79 % 2.06 % 2017-05-15
1116 qibovin 2.78 % ** 0.45 % 2017-01-01
1117 Xilonen 2.76 % ** 0.37 % 2017-01-01
1118 Dsbouch1 2.75 % ** 0.13 % 2017-01-01
1119 BamaAF 2.74 % 0.13 % 2017-01-01
1120 hindsnr 2.68 % ** 0.52 % 2017-01-01
1121 scooter0037 2.68 % ** 0.52 % 2017-01-01
1122 Becky * 2.63 % 1.76 % 2017-05-24
1123 DansTSP 2.61 % ** 0.85 % 2017-01-01
1124 jrhutch 2.58 % 0.64 % 2017-01-01
1125 Udflyer01 2.55 % 0.13 % 2017-01-01
1126 Erie 2.55 % ** 2.38 % 2017-01-01
1127 slowhand1964 2.46 % ** 0.37 % 2017-01-01
1128 Thunderhorse 2.44 % ** 0.45 % 2017-01-01
1129 btreecej 2.41 % ** 0.44 % 2017-01-01
1130 JABS 2.37 % 1.82 % 2017-01-01
1131 skshunterb * 2.35 % 2.35 % 2017-07-05
1132 Meteorology 2.31 % 0.23 % 2017-01-01
1133 alevin 2.30 % 0.13 % 2017-01-01
1134 kdub 2.23 % ** 0.39 % 2017-01-01
1135 road_kill 2.22 % ** 0.39 % 2017-01-01
1136 BigSnack 2.22 % ** 0.39 % 2017-01-01
1137 ilduce * 2.19 % 1.82 % 2017-06-27
1138 TerpTrader 2.16 % ** 0.13 % 2017-01-01
1139 artie32 2.10 % 0.48 % 2017-01-01
1140 stbondar 2.04 % ** 0.39 % 2017-01-01
1141 parton1080 2.03 % ** 0.34 % 2017-01-01
1142 Semper 2.02 % ** 0.13 % 2017-01-01
1143 msls6 2.01 % 0.13 % 2017-01-01
1144 Tawny27 1.94 % 0.28 % 2017-01-01
1145 Longstreet 1.92 % 0.13 % 2017-01-01
1146 EmoDx 1.85 % ** 0.29 % 2017-01-01
1147 Elkhunter 1.85 % ** 0.29 % 2017-01-01
1148 Robvegas 1.81 % ** 0.13 % 2017-01-01
1149 RAM56 1.77 % 0.24 % 2017-01-01
1150 truema666ot 1.77 % ** 0.26 % 2017-01-01
Rank Username YTD Returns MTD Returns Start Date
1151 williamr 1.76 % ** 0.26 % 2017-01-01
1152 Blarney 1.73 % ** 0.13 % 2017-01-01
1153 CaptainVic 1.70 % ** 0.21 % 2017-01-01
1154 Ship 1.67 % ** 0.23 % 2017-01-01
1155 llealo53 1.62 % ** 0.13 % 2017-01-01
1156 SMooreAce 1.61 % ** 0.18 % 2017-01-01
1157 PessOptimist 1.52 % ** 0.18 % 2017-01-01
1158 SayWhat 1.48 % ** 0.18 % 2017-01-01
1159 Tmahal720 1.44 % ** 0.49 % 2017-01-01
1160 userque 1.44 % ** 0.13 % 2017-01-01
1161 whiskyfire * 1.42 % 1.94 % 2017-06-08
1162 edeckman 1.41 % 0.24 % 2017-01-01
1163 lmcues 1.41 % 0.13 % 2017-01-01
1164 DLBJr 1.40 % 0.35 % 2017-01-01
1165 Wasp49 1.39 % ** 0.15 % 2017-01-01
1166 burrocrat 1.37 % 0.20 % 2017-01-01
1167 cawwilson 1.30 % 2.38 % 2017-01-01
1168 tmc1045 1.30 % 0.13 % 2017-01-01
1169 Myemal 1.30 % 0.13 % 2017-01-01
1170 grandma 1.30 % 0.13 % 2017-01-01
1171 Anaconda 1.30 % 0.13 % 2017-01-01
1172 shybear 1.30 % ** 0.13 % 2017-01-01
1173 WhiskeyOne 1.30 % ** 0.13 % 2017-01-01
1174 Edna1890 1.30 % ** 0.13 % 2017-01-01
1175 Golfdude 1.30 % ** 0.13 % 2017-01-01
1176 spinachetr 1.30 % ** 0.13 % 2017-01-01
1177 Captaincuse 1.30 % ** 0.13 % 2017-01-01
1178 kdraya 1.30 % ** 0.13 % 2017-01-01
1179 vectorman 1.30 % ** 0.13 % 2017-01-01
1180 St3gz 1.30 % ** 0.13 % 2017-01-01
1181 soyousay 1.30 % ** 0.13 % 2017-01-01
1182 spikeyball 1.30 % ** 0.13 % 2017-01-01
1183 NOLANDER 1.30 % ** 0.13 % 2017-01-01
1184 burros-ark 1.30 % ** 0.13 % 2017-01-01
1185 jonfresno 1.30 % ** 0.13 % 2017-01-01
1186 angus36 1.30 % ** 0.13 % 2017-01-01
1187 Lostdawg 1.30 % ** 0.13 % 2017-01-01
1188 Master_Key 1.30 % ** 0.13 % 2017-01-01
1189 G-fund 1.30 % 0.13 % 2017-01-01
1190 Nick 1.30 % ** 0.13 % 2017-01-01
1191 alcusmc 1.30 % ** 0.13 % 2017-01-01
1192 jaybro61 1.30 % ** 0.13 % 2017-01-01
1193 OBXTrader 1.30 % ** 0.13 % 2017-01-01
1194 Groovin 1.30 % ** 0.13 % 2017-01-01
1195 pecos_diamond 1.30 % ** 0.13 % 2017-01-01
1196 Toughmudder 1.30 % ** 0.13 % 2017-01-01
1197 Cyberzen 1.30 % ** 0.13 % 2017-01-01
1198 JEWELS1 1.30 % ** 0.13 % 2017-01-01
1199 DouglasL 1.30 % ** 0.13 % 2017-01-01
1200 bobgrem 1.30 % ** 0.13 % 2017-01-01
Rank Username YTD Returns MTD Returns Start Date
1201 totallykool 1.30 % ** 0.13 % 2017-01-01
1202 firstpersonpl 1.30 % ** 0.13 % 2017-01-01
1203 kdr1 1.30 % ** 0.13 % 2017-01-01
1204 Congee 1.30 % ** 0.13 % 2017-01-01
1205 PKevin 1.30 % ** 0.13 % 2017-01-01
1206 swordandcross 1.30 % ** 0.13 % 2017-01-01
1207 skycophigh 1.30 % ** 0.13 % 2017-01-01
1208 Boomer 1.30 % ** 0.13 % 2017-01-01
1209 mtom938 1.30 % ** 0.13 % 2017-01-01
1210 WorkFE 1.30 % ** 0.13 % 2017-01-01
1211 Mr_Shekels 1.30 % ** 0.13 % 2017-01-01
1212 Zags_Cal 1.30 % ** 0.13 % 2017-01-01
1213 ebikerz 1.30 % ** 0.13 % 2017-01-01
1214 bmneveu 1.30 % ** 0.13 % 2017-01-01
1215 kar_crazy 1.30 % ** 0.13 % 2017-01-01
1216 Kimber411 1.30 % ** 0.13 % 2017-01-01
1217 Heloguy 1.30 % ** 0.13 % 2017-01-01
1218 Stonehands 1.30 % ** 0.13 % 2017-01-01
1219 quickfuze 1.30 % ** 0.13 % 2017-01-01
1220 Skunked 1.30 % ** 0.13 % 2017-01-01
1221 ChiTown 1.30 % ** 0.13 % 2017-01-01
1222 BB-Stacker 1.30 % ** 0.13 % 2017-01-01
1223 Old_Town 1.30 % ** 0.13 % 2017-01-01
1224 wasaki 1.30 % ** 0.13 % 2017-01-01
1225 OKSHEMP 1.30 % ** 0.13 % 2017-01-01
1226 eddy_t 1.30 % ** 0.13 % 2017-01-01
1227 totoylv 1.30 % ** 0.13 % 2017-01-01
1228 WildBuzz 1.30 % ** 0.13 % 2017-01-01
1229 zdcman 1.30 % ** 0.13 % 2017-01-01
1230 Jerry 1.30 % ** 0.13 % 2017-01-01
1231 hummingbird 1.30 % ** 0.13 % 2017-01-01
1232 freechina 1.30 % ** 0.13 % 2017-01-01
1233 whitemingo 1.30 % ** 0.13 % 2017-01-01
1234 Zepplin4 1.30 % ** 0.13 % 2017-01-01
1235 theo15 1.30 % ** 0.13 % 2017-01-01
1236 robo 1.30 % ** 0.13 % 2017-01-01
1237 JMajor 1.30 % ** 0.13 % 2017-01-01
1238 polanece 1.30 % ** 0.13 % 2017-01-01
1239 LimaFox 1.30 % ** 0.13 % 2017-01-01
1240 trmill2 1.30 % ** 0.13 % 2017-01-01
1241 FlyingTurtle 1.30 % ** 0.13 % 2017-01-01
1242 gumshoe45 1.30 % ** 0.13 % 2017-01-01
1243 lostclimbing 1.30 % ** 0.13 % 2017-01-01
1244 ProfitHitz 1.30 % ** 0.13 % 2017-01-01
1245 Aquaman 1.30 % ** 0.13 % 2017-01-01
1246 tinker1 1.30 % ** 0.13 % 2017-01-01
1247 korrianderson 1.30 % ** 0.13 % 2017-01-01
1248 Deano64 1.30 % ** 0.13 % 2017-01-01
1249 HoustonJoe 1.30 % ** 0.13 % 2017-01-01
1250 kb9nvh 1.30 % ** 0.13 % 2017-01-01
Rank Username YTD Returns MTD Returns Start Date
1251 mochatater 1.30 % ** 0.13 % 2017-01-01
1252 mrbossman 1.30 % ** 0.13 % 2017-01-01
1253 Sepr8tr 1.30 % ** 0.13 % 2017-01-01
1254 woodsman 1.30 % ** 0.13 % 2017-01-01
1255 budfox 1.30 % ** 0.13 % 2017-01-01
1256 ExtremeWX 1.30 % ** 0.13 % 2017-01-01
1257 goldwell 1.30 % ** 0.13 % 2017-01-01
1258 mebrow5 1.30 % ** 0.13 % 2017-01-01
1259 minnow 1.30 % ** 0.13 % 2017-01-01
1260 mmk119 1.30 % ** 0.13 % 2017-01-01
1261 RATMONEY 1.30 % ** 0.13 % 2017-01-01
1262 FairShare 1.30 % ** 0.13 % 2017-01-01
1263 beachpeach80 1.30 % ** 0.13 % 2017-01-01
1264 budmaster 1.30 % ** 0.13 % 2017-01-01
1265 sabri11 1.30 % ** 0.13 % 2017-01-01
1266 osseo 1.30 % ** 0.13 % 2017-01-01
1267 INSITES 1.30 % ** 0.13 % 2017-01-01
1268 Kite_Runner 1.30 % ** 0.13 % 2017-01-01
1269 Rotre52 1.30 % ** 0.13 % 2017-01-01
1270 anthonyc220 1.30 % ** 0.13 % 2017-01-01
1271 nsurf9 1.30 % ** 0.13 % 2017-01-01
1272 1peckcd4 1.30 % ** 0.13 % 2017-01-01
1273 2peaches2oranges 1.30 % ** 0.13 % 2017-01-01
1274 agrimm01 1.30 % ** 0.13 % 2017-01-01
1275 Bantley64 1.30 % ** 0.13 % 2017-01-01
1276 BayouTrader 1.30 % ** 0.13 % 2017-01-01
1277 bgoldman 1.30 % ** 0.13 % 2017-01-01
1278 blueskies 1.30 % ** 0.13 % 2017-01-01
1279 Br0k3n4rr0w 1.30 % ** 0.13 % 2017-01-01
1280 BULLonPARADE 1.30 % ** 0.13 % 2017-01-01
1281 BUSHIDO 1.30 % ** 0.13 % 2017-01-01
1282 cedrus 1.30 % ** 0.13 % 2017-01-01
1283 cgooch 1.30 % ** 0.13 % 2017-01-01
1284 coerik1983 1.30 % ** 0.13 % 2017-01-01
1285 Concabar 1.30 % ** 0.13 % 2017-01-01
1286 Corepuncher 1.30 % ** 0.13 % 2017-01-01
1287 Cortez 1.30 % ** 0.13 % 2017-01-01
1288 crunchy_fo 1.30 % ** 0.13 % 2017-01-01
1289 DA44 1.30 % ** 0.13 % 2017-01-01
1290 Deadmeat99 1.30 % ** 0.13 % 2017-01-01
1291 Ed_the_Fed 1.30 % ** 0.13 % 2017-01-01
1292 FishinFool 1.30 % ** 0.13 % 2017-01-01
1293 flipper180 1.30 % ** 0.13 % 2017-01-01
1294 foolsgold 1.30 % ** 0.13 % 2017-01-01
1295 GFCSorI 1.30 % ** 0.13 % 2017-01-01
1296 GoTech 1.30 % ** 0.13 % 2017-01-01
1297 GR-Turk 1.30 % ** 0.13 % 2017-01-01
1298 Gryle 1.30 % ** 0.13 % 2017-01-01
1299 heathda 1.30 % ** 0.13 % 2017-01-01
1300 heflijl 1.30 % ** 0.13 % 2017-01-01
Rank Username YTD Returns MTD Returns Start Date
1301 Highheaven184 1.30 % ** 0.13 % 2017-01-01
1302 hlgalang 1.30 % ** 0.13 % 2017-01-01
1303 huff324 1.30 % ** 0.13 % 2017-01-01
1304 idplakm 1.30 % ** 0.13 % 2017-01-01
1305 jlaufer89 1.30 % ** 0.13 % 2017-01-01
1306 joylynn 1.30 % ** 0.13 % 2017-01-01
1307 JPHAMM1994